Weather History for Medford, WI

Change the Weather History Date:

Thursday, November 15, 2012

  Actual Average Record
Temperature  
Mean Temperature 39 °F -  
Max Temperature 48 °F 37 °F 64 °F (1953)
Min Temperature 30 °F 23 °F 4 °F (1959)
Degree Days  
Heating Degree Days 26    
Moisture  
Dew Point 30 °F    
Average Humidity 68    
Maximum Humidity 81    
Minimum Humidity 56    
Precipitation  
Precipitation 0.00 in - - ()
Sea Level Pressure  
Sea Level Pressure 30.22 in    
Wind  
Wind Speed 7 mph (SW)    
Max Wind Speed 10 mph    
Max Gust Speed -    
Visibility 10 miles    
Events      
Averages and records for this station are not official NWS values.
T = Trace of Precipitation, MM = Missing Value Source: NWS Daily Summary

Daily Weather History Graph

Daily Weather History Graph

Search for Another Location

Airport:

Trip Planner

Search our weather history database for the weather conditions in past years. The results will help you decide how hot, cold, wet, or windy it might be!

Date:

Astronomy

Nov. 15, 2012 Rise Set
Actual Time 6:59 AM CST 4:31 PM CST
Civil Twilight 6:27 AM CST 5:03 PM CST
Nautical Twilight 5:52 AM CST 5:39 PM CST
Astronomical Twilight 5:17 AM CST 6:13 PM CST
Moon 8:58 AM CST (11/15) 6:19 PM CST (11/15)
Length of Visible Light 10h 35m
Length of Day
9h 31m
Waxing Crescent, 5% of the Moon is Illuminated
Nov 15
Waxing Crescent
Nov 20
First Quarter
Nov 28
Full
Dec 6
Last Quarter
Dec 13
New

Hourly Weather History & Observations

Time (CST) Temp. Windchill Dew Point Humidity Pressure Visibility Wind Dir Wind Speed Gust Speed Precip Events Conditions
12:15 AM 37.4 °F 31.4 °F 30.2 °F 75% 30.19 in 10.0 mi South 8.1 mph - N/A   Overcast
12:35 AM 37.4 °F 31.4 °F 30.2 °F 75% 30.18 in 10.0 mi South 8.1 mph - N/A   Scattered Clouds
12:55 AM 37.4 °F 31.4 °F 30.2 °F 75% 30.18 in 10.0 mi South 8.1 mph - N/A   Scattered Clouds
1:15 AM 37.4 °F 31.4 °F 30.2 °F 75% 30.17 in 10.0 mi South 8.1 mph - N/A   Scattered Clouds
1:35 AM 37.4 °F 31.4 °F 30.2 °F 75% 30.17 in 10.0 mi South 8.1 mph - N/A   Scattered Clouds
1:55 AM 37.4 °F 30.8 °F 30.2 °F 75% 30.17 in 10.0 mi South 9.2 mph - N/A   Clear
2:15 AM 37.4 °F 30.8 °F 30.2 °F 75% 30.17 in 10.0 mi South 9.2 mph - N/A   Scattered Clouds
2:35 AM 37.4 °F 32.1 °F 30.2 °F 75% 30.17 in 10.0 mi South 6.9 mph - N/A   Scattered Clouds
2:55 AM 37.4 °F 32.1 °F 30.2 °F 75% 30.17 in 10.0 mi South 6.9 mph - N/A   Clear
3:15 AM 37.4 °F 32.8 °F 30.2 °F 75% 30.16 in 10.0 mi South 5.8 mph - N/A   Mostly Cloudy
3:35 AM 37.4 °F 32.8 °F 30.2 °F 75% 30.16 in 10.0 mi South 5.8 mph - N/A   Overcast
3:55 AM 37.4 °F 32.8 °F 30.2 °F 75% 30.16 in 10.0 mi South 5.8 mph - N/A   Scattered Clouds
4:15 AM 37.4 °F 32.1 °F 30.2 °F 75% 30.16 in 10.0 mi South 6.9 mph - N/A   Scattered Clouds
4:35 AM 37.4 °F 32.1 °F 30.2 °F 75% 30.16 in 10.0 mi South 6.9 mph - N/A   Scattered Clouds
4:55 AM 37.4 °F 34.9 °F 30.2 °F 75% 30.16 in 10.0 mi South 3.5 mph - N/A   Overcast
5:15 AM 37.4 °F 32.8 °F 30.2 °F 75% 30.16 in 10.0 mi South 5.8 mph - N/A   Overcast
5:35 AM 37.4 °F 32.8 °F 30.2 °F 75% 30.16 in 10.0 mi SSE 5.8 mph - N/A   Mostly Cloudy
5:55 AM 35.6 °F - 30.2 °F 81% 30.16 in 10.0 mi Calm Calm - N/A   Overcast
6:15 AM 35.6 °F 32.8 °F 30.2 °F 81% 30.16 in 10.0 mi SSE 3.5 mph - N/A   Overcast
6:35 AM 35.6 °F 31.7 °F 30.2 °F 81% 30.16 in 10.0 mi SSE 4.6 mph - N/A   Overcast
6:55 AM 35.6 °F 32.8 °F 30.2 °F 81% 30.16 in 10.0 mi SSE 3.5 mph - N/A   Overcast
7:15 AM 35.6 °F - 30.2 °F 81% 30.16 in 10.0 mi Calm Calm - N/A   Overcast
7:35 AM 35.6 °F 32.8 °F 30.2 °F 81% 30.17 in 10.0 mi South 3.5 mph - N/A   Overcast
7:55 AM 37.4 °F 34.9 °F 30.2 °F 75% 30.17 in 10.0 mi South 3.5 mph - N/A   Mostly Cloudy
8:15 AM 39.2 °F 33.6 °F 32.0 °F 75% 30.17 in 10.0 mi South 8.1 mph - N/A   Mostly Cloudy
8:35 AM 39.2 °F 35.0 °F 30.2 °F 70% 30.18 in 10.0 mi South 5.8 mph - N/A   Scattered Clouds
8:55 AM 39.2 °F 34.2 °F 30.2 °F 70% 30.18 in 10.0 mi South 6.9 mph - N/A   Scattered Clouds
9:15 AM 39.2 °F 35.0 °F 32.0 °F 75% 30.19 in 10.0 mi SSW 5.8 mph - N/A   Mostly Cloudy
9:35 AM 41.0 °F 35.2 °F 32.0 °F 70% 30.19 in 10.0 mi SSW 9.2 mph - N/A   Scattered Clouds
9:55 AM 42.8 °F 37.5 °F 32.0 °F 66% 30.19 in 10.0 mi SW 9.2 mph - N/A   Clear
10:15 AM 42.8 °F 38.0 °F 32.0 °F 66% 30.19 in 10.0 mi SW 8.1 mph - N/A   Clear
10:35 AM 44.6 °F 39.7 °F 33.8 °F 66% 30.19 in 10.0 mi SSW 9.2 mph - N/A   Clear
10:55 AM 44.6 °F 39.2 °F 33.8 °F 66% 30.19 in 10.0 mi SSW 10.4 mph - N/A   Mostly Cloudy
11:15 AM 44.6 °F 39.7 °F 32.0 °F 61% 30.18 in 10.0 mi SSW 9.2 mph - N/A   Mostly Cloudy
11:35 AM 44.6 °F 41.4 °F 32.0 °F 61% 30.18 in 10.0 mi SW 5.8 mph - N/A   Scattered Clouds
11:55 AM 46.4 °F 42.4 °F 33.8 °F 62% 30.18 in 10.0 mi WSW 8.1 mph - N/A   Clear
12:15 PM 48.2 °F - 33.8 °F 58% 30.17 in 10.0 mi SW 6.9 mph - N/A   Mostly Cloudy
12:35 PM 46.4 °F 42.4 °F 33.8 °F 62% 30.18 in 10.0 mi SSW 8.1 mph - N/A   Mostly Cloudy
12:55 PM 48.2 °F - 33.8 °F 58% 30.18 in 10.0 mi SSW 8.1 mph - N/A   Mostly Cloudy
1:15 PM 48.2 °F - 33.8 °F 58% 30.18 in 10.0 mi SW 6.9 mph - N/A   Scattered Clouds
1:35 PM 48.2 °F - 33.8 °F 58% 30.18 in 10.0 mi WSW 9.2 mph - N/A   Clear
1:55 PM 48.2 °F - 33.8 °F 58% 30.18 in 10.0 mi SSW 6.9 mph - N/A   Clear
2:15 PM 48.2 °F - 33.8 °F 58% 30.18 in 10.0 mi West 5.8 mph - N/A   Clear
2:35 PM 48.2 °F - 33.8 °F 58% 30.19 in 10.0 mi SW 4.6 mph - N/A   Clear
2:55 PM 48.2 °F - 33.8 °F 58% 30.19 in 10.0 mi WSW 8.1 mph - N/A   Clear
3:15 PM 48.2 °F - 33.8 °F 58% 30.20 in 10.0 mi WSW 8.1 mph - N/A   Clear
3:35 PM 48.2 °F - 33.8 °F 58% 30.21 in 10.0 mi WSW 6.9 mph - N/A   Clear
3:55 PM 46.4 °F 43.5 °F 33.8 °F 62% 30.21 in 10.0 mi SW 5.8 mph - N/A   Clear
4:15 PM 44.6 °F 42.2 °F 33.8 °F 66% 30.22 in 10.0 mi WSW 4.6 mph - N/A   Clear
4:35 PM 42.8 °F 40.1 °F 33.8 °F 70% 30.23 in 10.0 mi WSW 4.6 mph - N/A   Clear
4:55 PM 41.0 °F 39.0 °F 32.0 °F 70% 30.23 in 10.0 mi WSW 3.5 mph - N/A   Clear
5:15 PM 42.8 °F 41.1 °F 32.0 °F 66% 30.24 in 10.0 mi WSW 3.5 mph - N/A   Clear
5:35 PM 41.0 °F 39.0 °F 32.0 °F 70% 30.24 in 10.0 mi WSW 3.5 mph - N/A   Clear
5:55 PM 41.0 °F 38.0 °F 32.0 °F 70% 30.25 in 10.0 mi West 4.6 mph - N/A   Clear
6:15 PM 39.2 °F 35.9 °F 30.2 °F 70% 30.26 in 10.0 mi WSW 4.6 mph - N/A   Clear
6:35 PM 41.0 °F 37.1 °F 30.2 °F 65% 30.26 in 10.0 mi West 5.8 mph - N/A   Clear
6:55 PM 39.2 °F 34.2 °F 30.2 °F 70% 30.27 in 10.0 mi WNW 6.9 mph - N/A   Clear
7:15 PM 39.2 °F 35.0 °F 30.2 °F 70% 30.28 in 10.0 mi NW 5.8 mph - N/A   Clear
7:35 PM 39.2 °F 33.6 °F 30.2 °F 70% 30.29 in 10.0 mi North 8.1 mph - N/A   Clear
7:55 PM 39.2 °F 34.2 °F 28.4 °F 65% 30.30 in 10.0 mi North 6.9 mph - N/A   Clear
8:15 PM 37.4 °F 31.4 °F 26.6 °F 65% 30.31 in 10.0 mi North 8.1 mph - N/A   Clear
8:35 PM 37.4 °F 32.1 °F 24.8 °F 60% 30.31 in 10.0 mi North 6.9 mph - N/A   Clear
8:55 PM 35.6 °F 30.7 °F 23.0 °F 60% 30.32 in 10.0 mi North 5.8 mph - N/A   Clear
9:15 PM 35.6 °F 31.7 °F 21.2 °F 56% 30.32 in 10.0 mi North 4.6 mph - N/A   Clear
9:35 PM 35.6 °F 30.7 °F 21.2 °F 56% 30.33 in 10.0 mi North 5.8 mph - N/A   Clear
9:55 PM 33.8 °F 28.6 °F 19.4 °F 56% 30.34 in 10.0 mi North 5.8 mph - N/A   Clear
10:15 PM 33.8 °F 28.6 °F 19.4 °F 56% 30.34 in 10.0 mi North 5.8 mph - N/A   Clear
10:35 PM 33.8 °F 28.6 °F 19.4 °F 56% 30.34 in 10.0 mi North 5.8 mph - N/A   Clear
10:55 PM 32.0 °F 27.5 °F 19.4 °F 60% 30.35 in 10.0 mi North 4.6 mph - N/A   Clear
11:15 PM 32.0 °F 28.7 °F 19.4 °F 60% 30.36 in 10.0 mi North 3.5 mph - N/A   Clear
11:35 PM 30.2 °F - 19.4 °F 64% 30.36 in 10.0 mi Calm Calm - N/A   Clear
11:55 PM 30.2 °F 26.7 °F 19.4 °F 64% 30.36 in 10.0 mi North 3.5 mph - N/A   Clear